Theta_e
315 315 314 313 312 309 310 316 310 322 322 307 311 306 307 300 305 307 305 305 303 301 301 300 300 299 303 308 308 303 307 303 298 300 307 310 310 308 308 304 304 307 307 307
315 315 314 313 311 310 314 316 314 321 316 303 306 309 306 305 304 304 303 302 303 303 300 297 300 301 306 307 305 303 305 302 296 298 303 307 306 308 309 309 310 308 304 306
316 315 315 313 312 311 315 314 307 314 314 311 305 304 304 303 307 304 304 303 304 301 300 302 299 300 304 307 307 314 309 301 300 296 299 305 304 306 308 307 304 306 306 309
317 316 315 314 313 311 316 315 309 309 303 307 307 305 304 302 301 306 305 302 302 301 297 298 298 301 302 305 310 307 305 299 301 302 303 302 301 304 305 304 305 303 307 309
317 316 315 314 312 310 318 307 307 311 307 307 305 301 303 302 302 302 300 300 302 301 298 298 297 300 301 301 305 303 306 299 301 300 303 302 300 302 304 304 304 305 306 308
318 317 315 315 312 311 317 316 315 310 305 307 304 305 305 302 303 304 303 302 300 299 301 304 304 304 303 302 301 300 301 300 298 295 302 301 297 301 302 304 305 304 303 311
318 318 316 315 313 311 317 319 315 309 303 306 305 304 303 302 303 301 304 304 301 305 309 309 308 306 305 304 302 301 298 299 299 295 300 292 303 308 306 304 306 307 308 321
319 318 317 316 314 312 316 320 316 310 304 307 306 304 303 305 305 304 305 305 307 310 307 301 299 299 300 302 303 301 301 299 295 293 293 299 303 309 308 306 305 312 320 324
319 318 317 316 315 312 315 319 321 314 307 306 309 304 304 302 302 304 305 309 311 309 303 299 293 291 295 295 298 302 301 303 297 295 291 289 303 311 314 313 304 321 325 324
319 319 317 316 316 313 314 318 322 315 308 310 310 305 304 308 305 302 305 307 306 308 300 295 294 293 299 292 294 294 296 298 293 294 293 298 308 312 310 301 304 313 324 324
318 318 318 317 316 315 314 319 325 316 310 312 313 313 308 307 306 302 306 304 306 303 297 296 296 294 296 296 298 295 293 291 293 294 293 291 309 309 300 307 310 320 323 325
318 319 318 316 315 315 314 317 323 322 314 311 317 317 317 314 312 307 307 305 306 306 299 300 299 295 297 296 291 301 294 298 297 300 299 309 309 307 309 312 314 321 321 323
318 318 319 317 316 314 312 317 318 319 313 314 315 313 318 319 315 315 304 308 311 309 309 304 301 295 300 294 295 296 300 301 298 304 304 305 307 309 313 317 319 321 322 322
317 318 318 317 315 313 312 316 321 314 313 307 308 318 314 317 315 313 313 311 313 312 309 305 301 297 305 299 300 300 302 302 298 303 305 306 307 306 310 316 320 321 320 321
317 317 317 316 314 312 311 317 315 316 310 306 310 315 315 316 314 312 312 311 310 308 307 304 301 305 304 304 303 299 304 304 303 301 308 307 307 306 310 316 317 319 318 319
316 316 316 314 312 311 311 307 315 318 316 308 304 315 314 314 313 312 311 311 308 309 308 307 307 310 306 300 292 303 309 310 311 307 311 309 309 307 310 314 317 318 318 318
314 314 314 312 310 310 308 307 309 310 317 308 305 307 312 314 312 312 311 311 309 307 305 304 304 305 305 300 293 296 306 310 310 312 311 306 307 305 310 313 313 314 315 315
314 313 311 310 310 309 308 314 312 310 312 312 304 306 306 313 308 307 313 307 308 308 306 307 305 306 306 299 303 307 308 310 310 311 311 311 312 311 310 311 311 308 308 309
312 310 310 311 308 307 311 312 312 315 311 304 306 304 303 314 309 310 308 308 303 310 303 304 306 304 300 304 307 308 308 307 307 308 309 310 310 310 309 309 308 307 307 308
311 311 310 306 309 313 312 311 309 309 310 309 305 310 305 309 308 306 306 307 302 300 305 307 302 302 306 306 311 310 307 307 307 304 303 305 306 307 308 308 308 308 307 307
310 312 308 311 313 312 310 305 303 305 302 308 309 309 305 314 305 305 308 303 305 299 303 300 302 301 305 308 309 312 310 309 308 308 307 307 307 306 306 306 307 307 308 307
316 314 314 311 306 308 304 303 307 306 304 310 308 310 310 311 314 306 307 302 304 297 307 300 297 304 309 309 308 309 310 309 308 308 307 307 307 308 307 307 307 308 309 309
315 311 305 304 304 296 299 298 303 304 311 312 311 311 311 313 311 306 305 300 299 308 299 297 302 309 310 311 310 309 310 309 308 307 307 308 307 308 308 307 308 308 308 309
312 305 291 301 301 305 306 308 310 314 312 314 314 313 310 311 306 306 301 305 303 297 293 295 297 311 312 313 312 310 308 307 306 306 307 307 307 307 308 308 310 309 308 310
309 306 295 305 311 314 312 313 313 316 318 313 311 312 311 311 306 309 305 300 297 300 298 305 307 318 316 314 313 312 309 308 307 307 307 307 308 308 309 310 310 310 310 310
309 308 307 314 312 311 311 312 311 317 319 315 316 308 304 302 306 302 301 298 297 302 307 309 317 320 319 316 314 314 313 311 309 309 309 310 309 309 310 311 311 310 310 310
308 309 314 314 314 312 312 313 316 320 318 311 311 304 302 308 303 301 306 302 307 311 312 316 322 320 319 318 316 315 314 313 312 311 311 311 312 312 310 309 311 310 312 314
Wind_Speed
18 20 20 21 22 32 3 10 10 8 4 8 8 3 5 4 9 3 3 8 11 9 13 14 16 22 4 11 16 21 20 17 17 22 22 22 27 24 27 17 18 16 16 15
18 19 20 20 16 14 8 8 7 7 4 8 9 8 3 3 8 8 7 9 12 11 11 15 15 17 6 2 11 12 13 9 14 18 21 25 29 25 24 25 23 18 16 15
18 20 21 21 19 12 6 7 5 6 5 4 7 10 4 5 9 4 3 9 12 12 12 11 15 19 21 1 18 2 5 15 20 18 18 16 22 25 26 23 18 16 17 22
18 19 21 23 25 22 5 6 5 6 7 6 9 7 12 8 8 4 4 10 12 8 10 14 16 19 18 18 5 10 14 16 20 26 30 27 25 19 20 21 21 20 20 21
18 19 20 22 25 31 5 6 8 10 11 2 7 5 9 2 9 7 10 11 11 11 12 14 15 16 17 18 16 17 18 13 17 24 25 24 25 26 22 24 24 23 24 22
15 16 18 20 21 21 6 7 11 7 10 10 7 4 11 6 8 7 1 8 10 11 12 15 15 17 17 18 18 18 18 13 14 19 22 20 22 23 20 17 24 25 22 12
14 15 16 17 17 14 8 9 7 8 11 10 3 8 4 7 8 8 11 10 9 10 13 15 17 19 21 22 21 19 20 18 13 16 18 20 16 18 18 20 15 21 23 18
13 13 14 15 15 14 8 9 6 7 9 13 11 1 6 8 6 12 10 5 7 9 13 13 13 15 19 23 22 21 20 18 14 15 12 16 24 8 13 16 22 2 18 21
12 12 13 13 13 14 9 9 5 7 9 3 10 10 8 7 9 9 3 8 1 8 10 11 14 14 19 11 12 17 20 17 12 15 17 19 12 19 21 22 6 17 14 13
11 12 12 13 13 12 7 8 5 7 9 12 6 9 11 12 6 6 9 5 6 8 7 11 11 15 17 13 17 6 9 15 16 17 16 13 11 12 8 6 9 26 7 9
10 10 10 10 12 12 9 8 4 6 8 14 17 13 6 9 7 7 5 5 4 4 6 6 7 10 12 13 15 9 5 7 10 15 20 21 13 10 4 4 11 10 11 13
10 9 8 9 9 10 9 7 7 5 7 13 17 17 14 12 12 8 8 1 3 0 5 4 5 12 12 15 13 6 6 6 7 14 1 7 9 10 3 4 19 7 14 12
10 9 9 9 7 6 4 7 6 8 8 12 13 13 13 10 10 5 6 1 4 4 2 3 3 7 6 8 10 9 5 7 5 10 6 5 7 5 8 12 8 14 14 13
10 10 9 8 6 5 4 6 5 3 6 7 6 7 2 2 6 2 6 5 10 7 5 3 3 4 5 7 10 10 5 15 4 10 6 5 6 6 6 6 13 11 6 8
11 10 9 6 5 5 6 8 0 4 5 6 9 15 5 8 4 3 3 7 7 5 3 4 4 5 4 3 11 10 5 3 4 2 6 5 5 1 8 5 8 10 9 8
9 8 7 5 2 2 2 2 1 6 5 6 5 4 7 4 3 4 7 5 7 9 6 6 3 14 4 2 4 12 10 5 2 3 9 11 10 4 3 4 9 9 10 9
7 6 5 4 3 1 2 2 3 9 6 3 5 3 6 6 6 10 6 7 6 9 9 10 8 1 8 5 2 12 10 4 5 9 10 9 7 4 2 2 4 7 9 9
4 6 7 6 4 2 2 2 6 4 5 4 4 1 6 4 6 1 3 6 7 7 9 5 8 4 4 3 12 7 4 3 4 4 2 7 12 11 7 6 5 6 5 6
9 9 10 4 1 1 1 1 4 1 3 4 5 1 2 6 8 2 3 4 4 3 5 9 6 6 4 6 5 6 5 2 4 3 1 7 9 10 11 8 7 6 6 7
12 5 3 2 1 5 4 5 4 4 3 5 6 7 4 5 3 3 4 4 4 6 7 5 6 6 6 4 12 7 4 2 3 5 5 5 5 5 6 6 6 7 7 8
3 4 1 2 3 3 4 3 4 5 4 6 7 3 7 3 2 4 5 3 3 2 4 3 1 2 7 7 7 11 10 9 7 6 1 3 5 5 6 6 6 6 6 6
3 6 4 2 2 5 4 4 4 6 4 4 5 5 2 1 3 3 4 3 5 3 7 6 7 6 10 9 8 7 8 7 6 2 8 8 7 5 6 5 5 5 4 3
1 2 3 2 4 2 6 7 5 3 4 3 4 2 1 2 2 3 4 5 2 7 4 9 5 8 7 9 8 7 6 6 6 6 6 6 6 4 5 5 4 3 4 2
4 3 2 5 6 6 1 2 1 3 1 3 3 3 3 2 1 4 4 5 4 1 6 3 5 7 7 9 8 7 7 7 8 7 7 6 6 4 2 3 5 4 4 4
3 3 5 9 7 2 4 2 4 1 1 1 3 4 2 1 3 2 4 5 4 5 8 2 9 7 7 7 8 7 7 7 7 8 8 8 7 7 6 6 6 7 6 5
3 6 7 5 4 4 5 7 3 3 2 2 1 3 1 2 2 3 5 5 4 4 3 7 9 7 7 5 5 6 6 7 7 7 7 7 7 7 7 8 8 7 8 7
5 7 7 5 4 4 4 4 2 5 4 3 4 5 5 4 4 6 4 4 1 4 6 8 7 6 5 4 4 6 6 6 6 6 7 7 6 7 6 6 7 8 8 8
Wind_Direction
338 338 341 344 349 335 146 279 266 111 253 257 232 350 45 356 283 298 289 303 295 313 319 315 308 302 28 325 298 307 317 317 291 258 265 251 229 219 237 246 236 248 263 263
340 340 341 343 354 3 316 274 286 118 256 268 306 99 293 183 305 341 332 306 305 317 305 291 290 286 258 282 295 354 347 299 287 272 272 269 217 217 228 237 248 225 247 247
343 342 342 341 345 351 302 278 275 171 196 280 281 330 275 242 156 240 304 294 297 282 279 306 301 289 285 112 317 65 285 269 264 275 270 284 198 216 233 239 240 239 246 255
347 346 344 341 339 339 272 252 8 17 300 46 348 318 314 305 282 153 305 282 292 316 320 306 300 304 314 318 171 267 270 277 278 281 281 290 296 221 229 250 259 250 247 242
350 350 347 344 343 334 245 332 346 350 282 233 293 230 279 308 313 344 310 313 331 328 298 293 306 314 304 306 318 304 298 293 305 296 276 277 277 279 222 224 246 256 262 266
337 347 350 349 352 338 325 17 330 283 298 267 257 18 347 336 336 289 320 313 313 299 337 344 320 300 288 284 281 280 289 292 287 277 282 276 263 265 271 231 219 242 249 262
335 340 349 350 352 3 313 320 319 295 293 291 277 353 303 302 321 326 318 295 296 351 339 304 282 270 262 253 250 248 254 258 272 270 284 278 276 256 256 271 258 218 240 100
334 341 350 349 347 353 319 308 332 315 306 317 306 181 274 292 249 222 244 317 8 312 306 297 299 291 262 242 234 227 233 244 250 254 264 281 279 13 12 16 284 317 91 110
330 335 346 347 344 350 320 315 350 298 290 2 357 317 297 302 293 302 238 123 348 301 294 315 308 305 303 290 265 215 217 226 246 252 252 237 308 359 356 327 234 22 110 131
323 331 341 344 343 346 324 299 342 299 292 279 342 314 340 325 346 287 284 37 343 336 315 293 297 295 312 303 315 23 278 213 216 234 251 256 353 11 9 333 13 318 1 102
306 315 328 334 340 345 336 305 41 318 304 297 297 297 284 291 231 287 60 295 49 332 305 326 328 310 317 319 306 141 271 342 220 238 247 246 10 101 78 347 317 312 7 82
289 297 309 315 328 339 340 291 7 319 275 286 307 290 290 287 295 313 311 218 163 270 306 342 300 305 304 300 292 101 204 220 322 322 256 75 48 59 26 235 253 24 49 51
283 283 288 292 304 323 327 309 314 297 280 270 251 240 212 215 254 293 282 107 121 146 5 322 297 278 318 288 307 329 159 15 238 258 78 68 52 65 351 2 28 51 42 52
278 274 268 273 282 297 301 293 320 341 285 279 7 74 144 141 213 217 296 325 95 139 223 283 312 269 260 290 281 284 240 163 228 286 130 121 72 24 354 22 80 104 101 99
276 274 263 248 270 293 282 280 275 240 286 318 313 313 139 164 142 205 233 272 180 205 220 255 245 258 290 299 293 277 256 209 199 285 116 105 113 318 353 82 86 121 129 113
290 281 252 224 239 324 312 311 152 329 234 280 300 360 260 155 141 199 238 211 248 229 225 223 169 257 204 239 11 306 315 28 168 82 70 87 120 118 9 323 96 93 73 65
286 273 187 165 162 195 223 300 308 330 307 247 285 338 307 157 211 228 213 211 237 252 255 258 224 345 274 264 23 261 254 161 102 120 121 111 161 140 170 89 106 64 87 79
275 150 135 130 144 292 275 240 238 270 278 269 271 62 348 259 251 280 207 269 230 248 275 308 290 129 282 56 220 185 88 91 144 102 338 123 118 142 177 169 121 97 90 86
134 132 142 140 209 226 102 314 211 243 302 286 272 286 272 211 242 276 231 234 245 187 345 253 262 115 218 226 157 141 164 97 123 164 111 128 151 143 148 154 143 136 106 86
140 182 193 162 199 126 171 181 190 202 189 226 257 242 232 270 91 273 294 245 271 193 200 231 212 176 107 65 115 129 144 213 153 139 136 114 122 138 139 119 104 98 91 80
218 197 84 61 157 248 223 224 212 181 222 223 243 244 243 266 71 199 270 252 267 287 279 255 81 310 120 117 115 142 163 195 176 142 96 107 126 119 110 105 98 95 85 75
62 100 104 131 224 227 228 210 196 207 251 222 239 257 83 261 313 343 295 233 241 219 272 259 139 216 134 135 133 148 166 178 196 176 166 145 156 161 131 138 124 107 99 94
134 126 137 197 235 245 224 199 195 206 200 221 217 200 220 167 349 238 264 263 24 270 19 5 356 119 140 141 141 145 159 170 171 172 145 153 149 147 160 144 150 171 153 174
219 163 220 224 200 234 129 41 144 220 88 121 185 220 208 193 186 252 263 265 282 180 169 205 337 239 154 153 146 158 156 168 175 170 168 170 160 194 189 212 177 205 211 206
201 203 231 221 232 262 316 339 262 301 56 278 193 223 238 244 261 260 293 261 273 339 18 154 201 146 151 142 151 164 162 177 185 180 181 188 191 198 201 225 215 212 232 238
243 231 240 242 221 229 210 236 204 188 163 134 274 268 353 176 238 226 242 315 289 144 222 228 117 120 120 138 159 165 170 174 197 192 199 198 201 224 240 228 220 236 238 242
226 236 230 249 249 251 241 256 298 168 168 218 208 229 187 155 232 213 201 289 220 315 69 75 77 101 117 141 159 160 181 175 210 200 202 217 221 230 236 236 250 257 252 243